Location: *
(13.0000°N, 151.6000°E)
Time: 03:33:37
(UTC+00:00)

SeaSat 1 - Pass Details

Date: 01 April 2020
Orbit: 745 x 746 km, 108.0° (Epoch: 24 May)

Event Time Altitude Azimuth Distance (km) Brightness Sun altitude
Rises 18:27:03 0° 146° (SE) 3,175 6.0 -20.7°
Reaches altitude 10° 18:29:23 10° 140° (SE) 2,252 5.3 -20.1°
Maximum altitude 18:34:04 47° 67° (ENE) 976 3.5 -19.0°
Drops below altitude 10° 18:38:46 10° 354° (N) 2,253 5.0 -17.9°
Sets 18:41:05 0° 348° (NNW) 3,176 5.7 -17.3°
